Whiteville, NC

2:12 AM EST on December 13, 2017 (GMT -0500)
Columbus County Municipal

Weather History for KCPC - March, 2013

Change the Weather History Date:

Sunday, March 10, 2013

  Actual Average (KCRE) Record (KCRE)
Temperature  
Mean Temperature 50 °F -  
Max Temperature 67 °F 59 °F 81 °F (1997)
Min Temperature 32 °F 42 °F 24 °F (1996)
Degree Days  
Heating Degree Days 16    
Moisture  
Dew Point 27 °F    
Average Humidity 51    
Maximum Humidity 99    
Minimum Humidity 14    
Precipitation  
Precipitation 0.00 in - - ()
Sea Level Pressure  
Sea Level Pressure 30.26 in    
Wind  
Wind Speed 2 mph (East)    
Max Wind Speed 9 mph    
Max Gust Speed -    
Visibility 10 miles    
Events      
Averages and records for this station are not official NWS values.
T = Trace of Precipitation, MM = Missing Value Source: NWS Daily Summary

Daily Weather History Graph

Daily Weather History Graph

Search for Another Location

Airport or City:

Trip Planner

Search our weather history database for the weather conditions in past years. The results will help you decide how hot, cold, wet, or windy it might be!

Date:

Astronomy

Mar. 10, 2013 Rise Set
Actual Time 7:31 AM EDT 7:18 PM EDT
Civil Twilight 7:06 AM EDT 7:43 PM EDT
Nautical Twilight 6:37 AM EDT 8:12 PM EDT
Astronomical Twilight 6:08 AM EDT 8:42 PM EDT
Moon 6:28 AM EDT (3/10) 6:25 PM EDT (3/10)
Length of Visible Light 12h 37m
Length of Day
11h 46m
Waning Crescent, 2% of the Moon is Illuminated
Mar 10
Waning Crescent
Mar 11
New
Mar 19
First Quarter
Mar 27
Full
Apr 3
Last Quarter

Hourly Weather History & Observations

Time (EDT) Temp. Windchill Dew Point Humidity Pressure Visibility Wind Dir Wind Speed Gust Speed Precip Events Conditions
12:15 AM 38.7 °F - 35.1 °F 87% 30.29 in 10.0 mi Calm Calm - N/A   Clear
12:35 AM 38.3 °F - 35.1 °F 88% 30.29 in 10.0 mi Calm Calm - N/A   Clear
12:55 AM 36.1 °F - 34.0 °F 92% 30.29 in 10.0 mi Calm Calm - N/A   Clear
1:15 AM 36.9 °F - 34.7 °F 92% 30.29 in 10.0 mi Calm Calm - N/A   Clear
1:35 AM 37.8 °F - 35.2 °F 91% 30.29 in 10.0 mi Calm Calm - N/A   Clear
1:55 AM 36.9 °F - 34.5 °F 91% 30.28 in 10.0 mi Calm Calm - N/A   Clear
3:15 AM 36.7 °F - 33.8 °F 89% 30.27 in 10.0 mi Calm Calm - N/A   Clear
3:35 AM 35.6 °F - 34.3 °F 95% 30.26 in 10.0 mi Calm Calm - N/A   Clear
3:55 AM 34.2 °F - 32.9 °F 95% 30.25 in 10.0 mi Calm Calm - N/A   Clear
4:15 AM 34.3 °F - 33.6 °F 97% 30.24 in 10.0 mi Calm Calm - N/A   Clear
4:35 AM 34.7 °F - 33.8 °F 97% 30.25 in 10.0 mi Calm Calm - N/A   Clear
4:55 AM 35.6 °F - 33.1 °F 91% 30.25 in 10.0 mi Calm Calm - N/A   Clear
5:15 AM 33.8 °F - 32.4 °F 94% 30.25 in 10.0 mi Calm Calm - N/A   Clear
5:35 AM 34.9 °F - 33.1 °F 93% 30.26 in 10.0 mi Calm Calm - N/A   Clear
5:55 AM 34.7 °F - 33.3 °F 94% 30.27 in 10.0 mi Calm Calm - N/A   Clear
6:15 AM 34.7 °F - 32.5 °F 92% 30.27 in 10.0 mi Calm Calm - N/A   Clear
6:35 AM 32.9 °F - 32.2 °F 97% 30.27 in 10.0 mi Calm Calm - N/A   Clear
6:55 AM 32.4 °F - 32.0 °F 99% 30.27 in 10.0 mi Calm Calm - N/A   Clear
7:15 AM 33.3 °F - 32.5 °F 97% 30.28 in 10.0 mi Calm Calm - N/A   Clear
8:35 AM 37.9 °F - 36.1 °F 93% 30.29 in 10.0 mi Calm Calm - N/A   Clear
8:55 AM 42.4 °F - 38.7 °F 86% 30.29 in 10.0 mi Calm Calm - N/A   Clear
9:15 AM 46.0 °F 44.8 °F 37.4 °F 72% 30.30 in 10.0 mi East 3.5 mph - N/A   Clear
9:35 AM 48.9 °F - 35.4 °F 60% 30.30 in 10.0 mi ENE 4.6 mph - N/A   Clear
9:55 AM 51.3 °F - 32.4 °F 48% 30.30 in 10.0 mi East 6.9 mph - N/A   Clear
10:15 AM 53.2 °F - 32.0 °F 44% 30.31 in 10.0 mi ENE 4.6 mph - N/A   Clear
10:35 AM 54.1 °F - 29.1 °F 38% 30.32 in 10.0 mi East 3.5 mph - N/A   Clear
10:55 AM 55.4 °F - 28.8 °F 36% 30.32 in 10.0 mi East 4.6 mph - N/A   Clear
11:15 AM 55.6 °F - 27.9 °F 35% 30.31 in 10.0 mi SE 3.5 mph - N/A   Clear
11:35 AM 55.6 °F - 27.3 °F 34% 30.30 in 10.0 mi SE 4.6 mph - N/A   Clear
11:55 AM 57.7 °F - 29.5 °F 34% 30.30 in 10.0 mi East 5.8 mph - N/A   Clear
12:15 PM 58.3 °F - 27.9 °F 31% 30.30 in 10.0 mi NNE 4.6 mph - N/A   Clear
12:35 PM 59.7 °F - 26.8 °F 28% 30.30 in 10.0 mi ENE 5.8 mph - N/A   Clear
12:55 PM 60.4 °F - 24.6 °F 25% 30.29 in 10.0 mi ENE 3.5 mph - N/A   Clear
1:15 PM 60.6 °F - 23.4 °F 24% 30.29 in 10.0 mi Calm Calm - N/A   Clear
1:35 PM 63.3 °F - 25.9 °F 24% 30.28 in 10.0 mi ENE 4.6 mph - N/A   Clear
1:55 PM 63.3 °F - 24.4 °F 23% 30.26 in 10.0 mi ENE 3.5 mph - N/A   Clear
2:15 PM 64.6 °F - 22.6 °F 20% 30.26 in 10.0 mi ENE 8.1 mph - N/A   Clear
2:35 PM 64.6 °F - 22.3 °F 20% 30.24 in 10.0 mi ENE 4.6 mph - N/A   Clear
2:55 PM 65.3 °F - 23.4 °F 20% 30.24 in 10.0 mi East 4.6 mph - N/A   Clear
3:15 PM 65.8 °F - 23.4 °F 20% 30.23 in 10.0 mi East 5.8 mph - N/A   Clear
3:35 PM 66.6 °F - 23.7 °F 20% 30.23 in 10.0 mi NE 4.6 mph - N/A   Clear
3:55 PM 66.2 °F - 23.0 °F 19% 30.23 in 10.0 mi East 5.8 mph - N/A   Clear
4:15 PM 66.7 °F - 22.1 °F 18% 30.22 in 10.0 mi East 9.2 mph - N/A   Clear
4:35 PM 67.1 °F - 20.5 °F 17% 30.22 in 10.0 mi East 6.9 mph - N/A   Clear
4:55 PM 67.5 °F - 20.8 °F 17% 30.21 in 10.0 mi East 6.9 mph - N/A   Clear
5:15 PM 66.7 °F - 19.6 °F 17% 30.21 in 10.0 mi ESE 5.8 mph - N/A   Clear
5:35 PM 66.7 °F - 17.1 °F 15% 30.21 in 10.0 mi East 9.2 mph - N/A   Clear
5:55 PM 66.0 °F - 14.9 °F 14% 30.22 in 10.0 mi ESE 6.9 mph - N/A   Clear
6:15 PM 64.9 °F - 14.4 °F 14% 30.22 in 10.0 mi ESE 6.9 mph - N/A   Clear
6:35 PM 63.9 °F - 14.4 °F 15% 30.23 in 10.0 mi ESE 8.1 mph - N/A   Clear
6:55 PM 61.9 °F - 16.5 °F 17% 30.23 in 10.0 mi ESE 5.8 mph - N/A   Clear
7:15 PM 59.9 °F - 17.4 °F 19% 30.23 in 10.0 mi ESE 5.8 mph - N/A   Clear
7:35 PM 58.3 °F - 18.5 °F 21% 30.24 in 10.0 mi ESE 3.5 mph - N/A   Clear
7:55 PM 56.8 °F - 16.7 °F 21% 30.24 in 10.0 mi ESE 3.5 mph - N/A   Clear
8:15 PM 55.9 °F - 16.0 °F 21% 30.24 in 10.0 mi Calm Calm - N/A   Clear
8:35 PM 54.3 °F - 18.0 °F 24% 30.24 in 10.0 mi East 3.5 mph - N/A   Clear
8:55 PM 50.2 °F - 20.5 °F 31% 30.24 in 10.0 mi Calm Calm - N/A   Clear
9:15 PM 48.6 °F - 24.4 °F 39% 30.25 in 10.0 mi Calm Calm - N/A   Clear
9:35 PM 50.2 °F - 21.6 °F 33% 30.25 in 10.0 mi Calm Calm - N/A   Clear
9:55 PM 47.5 °F - 24.3 °F 40% 30.26 in 10.0 mi Calm Calm - N/A   Clear
10:15 PM 46.4 °F - 23.7 °F 41% 30.26 in 10.0 mi Calm Calm - N/A   Clear
10:35 PM 45.7 °F - 24.4 °F 43% 30.26 in 10.0 mi Calm Calm - N/A   Clear
10:55 PM 44.6 °F - 28.6 °F 53% 30.26 in 10.0 mi Calm Calm - N/A   Clear
11:15 PM 44.2 °F - 26.2 °F 49% 30.26 in 10.0 mi Calm Calm - N/A   Clear
11:35 PM 43.0 °F - 28.0 °F 56% 30.26 in 10.0 mi Calm Calm - N/A   Clear
11:55 PM 45.9 °F - 30.0 °F 54% 30.25 in 10.0 mi Calm Calm - N/A   Clear
12:15 AM 43.3 °F - 29.7 °F 59% 30.24 in 10.0 mi Calm Calm - N/A   Clear
12:35 AM 42.8 °F - 32.0 °F 66% 30.24 in 10.0 mi Calm Calm - N/A   Clear